User: anonymous   Login
Location: Vancouver
(49.2500°N, 123.1330°W)
Time: 21:59:11
(UTC-08:00)
Language:

JAS-1B - Orbit

View from above orbital plane
View from above orbital plane
View from above satellite
View from above satellite

Ground track
Ground track

The orbit data is extracted from the following two-line orbital elements,

1 20480U 90013C   15057.42967039 -.00000037  00000-0 -17541-4 0  9999
2 20480 099.0749 338.1202 0540905 138.1301 340.3473 12.83402194173743
Epoch (UTC): 26 February 2015 10:18:43
Eccentricity: 0.0540905
inclination: 99.0749°
perigee height: 911 km
apogee height: 1744 km
right ascension of ascending node: 338.1202°
argument of perigee: 138.1301°
revolutions per day: 12.83402194
mean anomaly at epoch: 340.3473°
orbit number at epoch: 17374

The dashed part of the orbit path shows where the satellite is in the earth's shadow,  

DLR